Location: Debolt
(55.2626°N, 118.0981°W)
Time: 08:23:07
(UTC+00:00)

AIST 2D - Visible Passes

Search period start: 08 December 2023 00:00
Search period end: 18 December 2023 00:00
Orbit: 349 x 354 km, 97.0° (Epoch: 08 December)

Date Brightness Start Highest point End Pass type
(mag) Time Alt. Az. Time Alt. Az. Time Alt. Az.
09 Dec ? 14:57:20 10° E 14:58:45 13° ENE 15:00:10 10° NNE visible
10 Dec ? 15:22:02 10° ESE 15:24:21 23° ENE 15:26:40 10° N visible
13 Dec ? 15:08:39 10° ESE 15:10:32 17° ENE 15:12:28 10° NNE visible
16 Dec ? 14:54:50 10° E 14:56:02 12° ENE 14:57:14 10° NE visible
17 Dec ? 15:18:51 10° ESE 15:21:03 21° ENE 15:23:16 10° NNE visible
